QPF
0.00 0.00 0.00 0.00 0.00 0.00 0.00 0.00 0.00 0.00 0.00 0.00 0.00 0.00 0.00 0.00 0.00 0.00 0.00 0.00 0.01 0.01 0.00 0.00 0.00 0.01 0.01 0.01 0.01 0.01 0.01 0.01 0.01 0.01 0.02 0.02 0.02 0.02 0.02 0.01 0.01 0.01 0.01 0.00
0.00 0.00 0.00 0.00 0.00 0.00 0.00 0.00 0.00 0.00 0.00 0.00 0.00 0.00 0.00 0.00 0.00 0.00 0.00 0.00 0.00 0.00 0.00 0.00 0.01 0.01 0.01 0.01 0.01 0.01 0.01 0.01 0.01 0.01 0.01 0.01 0.01 0.01 0.01 0.01 0.01 0.01 0.01 0.01
0.00 0.00 0.00 0.00 0.00 0.00 0.00 0.00 0.00 0.00 0.00 0.00 0.00 0.00 0.00 0.01 0.01 0.00 0.00 0.01 0.01 0.01 0.01 0.01 0.01 0.01 0.01 0.01 0.01 0.01 0.01 0.01 0.01 0.01 0.01 0.01 0.01 0.01 0.01 0.01 0.01 0.01 0.01 0.01
0.01 0.01 0.01 0.00 0.00 0.00 0.00 0.00 0.00 0.00 0.00 0.00 0.00 0.00 0.01 0.01 0.01 0.01 0.01 0.01 0.01 0.01 0.01 0.01 0.01 0.01 0.01 0.01 0.01 0.01 0.01 0.01 0.01 0.00 0.00 0.00 0.00 0.00 0.00 0.01 0.01 0.01 0.00 0.01
0.01 0.01 0.00 0.00 0.00 0.00 0.00 0.00 0.00 0.00 0.00 0.00 0.01 0.01 0.01 0.01 0.01 0.01 0.01 0.01 0.01 0.01 0.01 0.01 0.01 0.01 0.01 0.01 0.01 0.01 0.01 0.01 0.01 0.01 0.00 0.00 0.00 0.00 0.00 0.00 0.00 0.00 0.00 0.00
0.02 0.02 0.01 0.00 0.00 0.00 0.01 0.01 0.00 0.00 0.00 0.00 0.01 0.01 0.01 0.01 0.01 0.01 0.01 0.01 0.01 0.01 0.01 0.01 0.01 0.01 0.01 0.01 0.01 0.01 0.01 0.01 0.01 0.01 0.01 0.01 0.01 0.00 0.00 0.00 0.00 0.00 0.00 0.00
0.03 0.03 0.01 0.00 0.00 0.00 0.02 0.02 0.00 0.00 0.00 0.00 0.01 0.02 0.02 0.02 0.02 0.01 0.01 0.02 0.02 0.01 0.01 0.01 0.01 0.01 0.01 0.01 0.01 0.02 0.02 0.02 0.01 0.01 0.01 0.01 0.01 0.01 0.01 0.00 0.00 0.00 0.00 0.00
0.03 0.03 0.01 0.00 0.00 0.01 0.02 0.01 0.00 0.00 0.01 0.01 0.01 0.02 0.02 0.02 0.02 0.02 0.02 0.02 0.02 0.02 0.01 0.01 0.01 0.01 0.01 0.01 0.01 0.02 0.02 0.02 0.02 0.01 0.01 0.01 0.01 0.00 0.00 0.00 0.00 0.00 0.00 0.00
0.01 0.01 0.01 0.00 0.00 0.00 0.00 0.00 0.01 0.01 0.01 0.01 0.01 0.02 0.02 0.02 0.02 0.02 0.03 0.02 0.02 0.02 0.02 0.02 0.02 0.02 0.02 0.02 0.03 0.02 0.02 0.02 0.02 0.02 0.01 0.01 0.01 0.01 0.00 0.00 0.00 0.00 0.01 0.01
0.00 0.00 0.00 0.00 0.00 0.00 0.01 0.01 0.01 0.02 0.02 0.02 0.02 0.02 0.02 0.02 0.02 0.01 0.01 0.01 0.02 0.02 0.02 0.02 0.02 0.03 0.03 0.03 0.03 0.03 0.02 0.02 0.01 0.01 0.01 0.01 0.01 0.01 0.01 0.01 0.01 0.01 0.01 0.01
0.00 0.00 0.00 0.01 0.01 0.01 0.02 0.02 0.02 0.03 0.03 0.03 0.03 0.03 0.03 0.02 0.01 0.01 0.01 0.01 0.01 0.01 0.01 0.02 0.02 0.02 0.03 0.02 0.02 0.02 0.02 0.02 0.02 0.01 0.01 0.01 0.01 0.01 0.01 0.00 0.01 0.01 0.01 0.01
0.01 0.01 0.01 0.02 0.03 0.03 0.03 0.03 0.03 0.04 0.03 0.03 0.04 0.03 0.02 0.02 0.01 0.01 0.02 0.01 0.01 0.01 0.01 0.00 0.01 0.01 0.01 0.02 0.02 0.02 0.01 0.01 0.01 0.01 0.01 0.01 0.01 0.01 0.01 0.01 0.01 0.01 0.02 0.02
0.01 0.01 0.01 0.03 0.05 0.06 0.05 0.05 0.04 0.04 0.04 0.04 0.03 0.03 0.02 0.02 0.02 0.02 0.02 0.02 0.02 0.02 0.01 0.00 0.00 0.00 0.00 0.00 0.01 0.01 0.01 0.01 0.01 0.00 0.00 0.00 0.00 0.00 0.00 0.01 0.01 0.02 0.01 0.01
0.01 0.01 0.02 0.03 0.05 0.06 0.07 0.07 0.05 0.05 0.05 0.04 0.04 0.06 0.04 0.04 0.03 0.02 0.01 0.01 0.01 0.01 0.01 0.01 0.00 0.00 0.00 0.00 0.00 0.00 0.00 0.00 0.00 0.00 0.00 0.00 0.00 0.00 0.00 0.00 0.00 0.00 0.00 0.00
0.01 0.02 0.03 0.04 0.06 0.07 0.07 0.06 0.04 0.04 0.04 0.03 0.03 0.04 0.03 0.03 0.02 0.02 0.01 0.01 0.00 0.00 0.00 0.00 0.00 0.00 0.00 0.00 0.00 0.00 0.00 0.00 0.00 0.00 0.00 0.00 0.00 0.00 0.00 0.00 0.00 0.00 0.00 0.00
0.02 0.02 0.03 0.04 0.05 0.04 0.04 0.03 0.04 0.04 0.04 0.03 0.03 0.02 0.01 0.01 0.00 0.00 0.00 0.00 0.00 0.00 0.00 0.00 0.00 0.00 0.00 0.00 0.00 0.00 0.00 0.00 0.00 0.00 0.00 0.00 0.00 0.00 0.00 0.00 0.00 0.00 0.00 0.00
0.03 0.03 0.03 0.04 0.04 0.03 0.04 0.05 0.05 0.05 0.04 0.03 0.02 0.02 0.01 0.01 0.00 0.00 0.00 0.00 0.00 0.00 0.00 0.00 0.00 0.00 0.00 0.00 0.00 0.00 0.00 0.00 0.00 0.00 0.00 0.00 0.00 0.00 0.00 0.00 0.00 0.00 0.00 0.00
0.01 0.01 0.03 0.05 0.05 0.04 0.04 0.04 0.05 0.04 0.03 0.02 0.01 0.01 0.00 0.00 0.00 0.00 0.00 0.00 0.00 0.00 0.00 0.00 0.00 0.00 0.00 0.00 0.00 0.00 0.00 0.00 0.00 0.00 0.00 0.00 0.00 0.00 0.00 0.00 0.00 0.00 0.00 0.01
0.01 0.02 0.02 0.02 0.02 0.02 0.02 0.02 0.03 0.03 0.02 0.01 0.01 0.01 0.00 0.00 0.00 0.00 0.00 0.00 0.00 0.00 0.00 0.00 0.00 0.00 0.00 0.00 0.00 0.00 0.00 0.00 0.00 0.00 0.00 0.00 0.00 0.00 0.00 0.00 0.01 0.01 0.01 0.01
0.01 0.02 0.02 0.02 0.01 0.01 0.01 0.01 0.01 0.01 0.01 0.01 0.01 0.01 0.00 0.00 0.00 0.00 0.00 0.00 0.00 0.00 0.00 0.00 0.00 0.00 0.00 0.00 0.00 0.00 0.00 0.00 0.00 0.00 0.00 0.00 0.00 0.00 0.00 0.01 0.01 0.02 0.02 0.02
0.02 0.02 0.01 0.01 0.01 0.01 0.01 0.02 0.02 0.02 0.02 0.01 0.01 0.01 0.01 0.00 0.00 0.00 0.00 0.00 0.00 0.00 0.00 0.00 0.00 0.00 0.00 0.00 0.00 0.00 0.00 0.00 0.00 0.00 0.00 0.00 0.00 0.00 0.01 0.01 0.02 0.02 0.03 0.04
0.01 0.00 0.00 0.00 0.01 0.01 0.02 0.02 0.02 0.01 0.01 0.01 0.01 0.00 0.00 0.00 0.00 0.00 0.00 0.00 0.00 0.00 0.00 0.00 0.00 0.00 0.00 0.00 0.00 0.00 0.00 0.00 0.00 0.00 0.00 0.00 0.01 0.01 0.01 0.02 0.02 0.03 0.04 0.05
0.01 0.01 0.00 0.00 0.00 0.00 0.00 0.00 0.00 0.00 0.00 0.00 0.00 0.00 0.00 0.00 0.00 0.00 0.00 0.00 0.00 0.00 0.00 0.00 0.00 0.00 0.00 0.00 0.00 0.00 0.00 0.00 0.00 0.00 0.00 0.01 0.01 0.01 0.01 0.02 0.03 0.04 0.05 0.05
0.01 0.01 0.00 0.00 0.00 0.00 0.00 0.00 0.00 0.00 0.00 0.00 0.00 0.00 0.00 0.00 0.00 0.00 0.00 0.00 0.00 0.00 0.00 0.00 0.00 0.00 0.00 0.00 0.00 0.00 0.00 0.00 0.00 0.00 0.01 0.01 0.01 0.01 0.02 0.02 0.03 0.04 0.04 0.04
0.01 0.01 0.00 0.00 0.01 0.01 0.01 0.00 0.00 0.00 0.00 0.00 0.00 0.00 0.00 0.00 0.00 0.00 0.00 0.00 0.00 0.00 0.00 0.00 0.00 0.00 0.00 0.01 0.01 0.01 0.01 0.01 0.01 0.01 0.01 0.01 0.01 0.02 0.02 0.03 0.04 0.04 0.05 0.05
0.01 0.01 0.01 0.01 0.00 0.00 0.00 0.00 0.00 0.00 0.00 0.00 0.00 0.00 0.00 0.00 0.00 0.00 0.01 0.01 0.01 0.01 0.01 0.01 0.01 0.01 0.02 0.02 0.01 0.01 0.01 0.01 0.01 0.02 0.02 0.02 0.03 0.03 0.03 0.03 0.03 0.04 0.05 0.05
0.00 0.00 0.00 0.00 0.00 0.00 0.00 0.00 0.01 0.01 0.01 0.01 0.01 0.01 0.01 0.01 0.01 0.01 0.02 0.02 0.02 0.02 0.02 0.02 0.02 0.02 0.02 0.01 0.01 0.01 0.01 0.01 0.01 0.02 0.02 0.02 0.02 0.02 0.02 0.03 0.04 0.05 0.04 0.04
MSLP
1009.38 1009.48 1009.54 1009.55 1009.54 1009.51 1009.45 1009.36 1009.25 1009.10 1008.93 1008.75 1008.56 1008.39 1008.24 1008.12 1008.06 1008.05 1008.08 1008.16 1008.29 1008.47 1008.68 1008.93 1009.22 1009.55 1009.91 1010.31 1010.73 1011.18 1011.64 1012.11 1012.58 1013.06 1013.55 1014.04 1014.53 1015.02 1015.49 1015.95 1016.37 1016.74 1017.05 1017.31
1009.40 1009.44 1009.40 1009.30 1009.16 1009.02 1008.89 1008.78 1008.69 1008.63 1008.58 1008.54 1008.51 1008.47 1008.41 1008.36 1008.29 1008.23 1008.18 1008.16 1008.17 1008.22 1008.34 1008.51 1008.74 1009.03 1009.36 1009.74 1010.15 1010.58 1011.01 1011.45 1011.90 1012.35 1012.82 1013.29 1013.78 1014.28 1014.77 1015.24 1015.68 1016.09 1016.43 1016.72
1009.52 1009.51 1009.38 1009.17 1008.93 1008.70 1008.51 1008.38 1008.34 1008.35 1008.43 1008.54 1008.65 1008.73 1008.78 1008.77 1008.70 1008.60 1008.47 1008.34 1008.23 1008.17 1008.18 1008.27 1008.43 1008.67 1008.97 1009.31 1009.69 1010.08 1010.47 1010.87 1011.27 1011.67 1012.09 1012.53 1013.00 1013.47 1013.96 1014.45 1014.91 1015.35 1015.73 1016.07
1009.73 1009.66 1009.45 1009.16 1008.83 1008.53 1008.30 1008.17 1008.17 1008.28 1008.46 1008.70 1008.94 1009.15 1009.28 1009.32 1009.27 1009.13 1008.93 1008.72 1008.51 1008.34 1008.26 1008.26 1008.35 1008.53 1008.78 1009.08 1009.41 1009.74 1010.08 1010.41 1010.74 1011.08 1011.43 1011.82 1012.23 1012.67 1013.15 1013.63 1014.11 1014.58 1015.00 1015.37
1009.95 1009.80 1009.53 1009.16 1008.77 1008.42 1008.17 1008.07 1008.11 1008.30 1008.59 1008.95 1009.32 1009.62 1009.84 1009.94 1009.91 1009.76 1009.53 1009.24 1008.97 1008.72 1008.56 1008.49 1008.52 1008.64 1008.83 1009.08 1009.34 1009.61 1009.88 1010.12 1010.37 1010.62 1010.89 1011.20 1011.55 1011.95 1012.39 1012.86 1013.34 1013.82 1014.27 1014.67
1010.05 1009.84 1009.50 1009.08 1008.65 1008.28 1008.04 1007.96 1008.07 1008.33 1008.72 1009.19 1009.66 1010.07 1010.36 1010.52 1010.53 1010.40 1010.16 1009.86 1009.54 1009.27 1009.06 1008.94 1008.92 1009.00 1009.14 1009.32 1009.52 1009.71 1009.89 1010.04 1010.19 1010.34 1010.52 1010.74 1011.02 1011.36 1011.76 1012.20 1012.67 1013.15 1013.61 1014.03
1009.95 1009.68 1009.28 1008.83 1008.38 1008.03 1007.81 1007.78 1007.95 1008.30 1008.78 1009.33 1009.89 1010.39 1010.76 1010.99 1011.05 1010.96 1010.75 1010.47 1010.17 1009.90 1009.69 1009.56 1009.52 1009.56 1009.66 1009.78 1009.92 1010.03 1010.12 1010.18 1010.23 1010.28 1010.37 1010.50 1010.70 1010.97 1011.32 1011.72 1012.16 1012.62 1013.06 1013.48
1009.60 1009.28 1008.85 1008.39 1007.96 1007.64 1007.48 1007.52 1007.76 1008.18 1008.74 1009.36 1010.00 1010.56 1011.01 1011.29 1011.42 1011.40 1011.25 1011.03 1010.78 1010.55 1010.38 1010.27 1010.24 1010.27 1010.34 1010.43 1010.50 1010.54 1010.55 1010.52 1010.48 1010.44 1010.43 1010.48 1010.60 1010.81 1011.09 1011.44 1011.83 1012.25 1012.66 1013.05
1009.04 1008.69 1008.26 1007.82 1007.45 1007.20 1007.12 1007.24 1007.55 1008.04 1008.66 1009.35 1010.03 1010.64 1011.13 1011.47 1011.66 1011.70 1011.63 1011.49 1011.32 1011.16 1011.05 1011.00 1011.01 1011.05 1011.11 1011.17 1011.20 1011.18 1011.12 1011.02 1010.90 1010.78 1010.69 1010.66 1010.71 1010.84 1011.06 1011.35 1011.69 1012.05 1012.42 1012.75
1008.40 1008.04 1007.64 1007.27 1006.98 1006.82 1006.85 1007.06 1007.46 1008.01 1008.67 1009.39 1010.08 1010.71 1011.22 1011.59 1011.82 1011.92 1011.92 1011.86 1011.78 1011.71 1011.68 1011.69 1011.74 1011.81 1011.89 1011.93 1011.93 1011.87 1011.76 1011.59 1011.41 1011.23 1011.08 1010.98 1010.97 1011.04 1011.19 1011.41 1011.69 1011.99 1012.28 1012.55
1007.84 1007.51 1007.18 1006.90 1006.72 1006.70 1006.84 1007.15 1007.62 1008.23 1008.91 1009.62 1010.30 1010.90 1011.39 1011.75 1011.98 1012.11 1012.16 1012.17 1012.16 1012.17 1012.22 1012.29 1012.39 1012.49 1012.58 1012.62 1012.60 1012.51 1012.36 1012.15 1011.92 1011.69 1011.49 1011.35 1011.28 1011.30 1011.40 1011.56 1011.77 1011.99 1012.22 1012.41
1007.55 1007.28 1007.05 1006.89 1006.85 1006.96 1007.23 1007.64 1008.18 1008.81 1009.49 1010.16 1010.78 1011.32 1011.74 1012.05 1012.25 1012.36 1012.42 1012.46 1012.50 1012.56 1012.65 1012.77 1012.90 1013.03 1013.11 1013.15 1013.12 1013.01 1012.83 1012.59 1012.33 1012.07 1011.84 1011.66 1011.56 1011.53 1011.58 1011.68 1011.83 1011.99 1012.14 1012.26
1007.65 1007.47 1007.35 1007.33 1007.43 1007.68 1008.06 1008.56 1009.15 1009.79 1010.43 1011.04 1011.57 1012.00 1012.32 1012.53 1012.66 1012.71 1012.74 1012.76 1012.80 1012.87 1012.98 1013.11 1013.25 1013.37 1013.46 1013.48 1013.42 1013.29 1013.09 1012.83 1012.55 1012.27 1012.02 1011.82 1011.69 1011.63 1011.64 1011.69 1011.79 1011.89 1011.98 1012.03
1008.16 1008.08 1008.08 1008.19 1008.43 1008.80 1009.28 1009.85 1010.47 1011.09 1011.67 1012.19 1012.60 1012.90 1013.09 1013.17 1013.18 1013.15 1013.10 1013.07 1013.07 1013.11 1013.19 1013.30 1013.42 1013.52 1013.57 1013.56 1013.48 1013.32 1013.09 1012.82 1012.52 1012.23 1011.97 1011.76 1011.61 1011.53 1011.51 1011.53 1011.58 1011.64 1011.67 1011.67
1009.02 1009.03 1009.14 1009.37 1009.72 1010.18 1010.74 1011.34 1011.96 1012.54 1013.05 1013.46 1013.74 1013.90 1013.94 1013.88 1013.76 1013.61 1013.47 1013.35 1013.28 1013.27 1013.29 1013.35 1013.42 1013.47 1013.47 1013.41 1013.29 1013.09 1012.84 1012.55 1012.24 1011.94 1011.67 1011.46 1011.30 1011.21 1011.16 1011.16 1011.19 1011.21 1011.21 1011.16
1010.10 1010.18 1010.37 1010.68 1011.11 1011.63 1012.22 1012.83 1013.42 1013.95 1014.37 1014.66 1014.81 1014.83 1014.73 1014.54 1014.29 1014.03 1013.78 1013.57 1013.42 1013.33 1013.28 1013.27 1013.27 1013.25 1013.20 1013.08 1012.91 1012.67 1012.39 1012.08 1011.75 1011.45 1011.17 1010.95 1010.79 1010.69 1010.64 1010.62 1010.62 1010.62 1010.59 1010.53
1011.23 1011.36 1011.59 1011.94 1012.40 1012.93 1013.52 1014.10 1014.64 1015.09 1015.42 1015.61 1015.65 1015.54 1015.32 1015.02 1014.67 1014.31 1013.97 1013.68 1013.46 1013.29 1013.18 1013.09 1013.02 1012.93 1012.82 1012.64 1012.42 1012.14 1011.83 1011.49 1011.16 1010.84 1010.57 1010.34 1010.18 1010.07 1010.01 1009.98 1009.96 1009.94 1009.90 1009.81
1012.29 1012.41 1012.65 1012.99 1013.43 1013.94 1014.48 1015.01 1015.48 1015.84 1016.09 1016.17 1016.12 1015.92 1015.62 1015.24 1014.82 1014.41 1014.02 1013.68 1013.40 1013.18 1013.02 1012.88 1012.75 1012.61 1012.43 1012.21 1011.94 1011.63 1011.29 1010.93 1010.58 1010.26 1009.98 1009.75 1009.58 1009.46 1009.38 1009.34 1009.30 1009.26 1009.20 1009.09
1013.16 1013.26 1013.46 1013.75 1014.13 1014.58 1015.04 1015.49 1015.87 1016.15 1016.30 1016.32 1016.19 1015.94 1015.59 1015.18 1014.75 1014.32 1013.92 1013.57 1013.29 1013.06 1012.87 1012.71 1012.55 1012.37 1012.16 1011.91 1011.61 1011.28 1010.91 1010.54 1010.18 1009.85 1009.56 1009.32 1009.14 1009.00 1008.90 1008.83 1008.77 1008.70 1008.60 1008.47
1013.85 1013.89 1014.02 1014.24 1014.54 1014.89 1015.25 1015.59 1015.88 1016.07 1016.15 1016.10 1015.93 1015.66 1015.32 1014.92 1014.51 1014.11 1013.74 1013.44 1013.18 1012.98 1012.81 1012.66 1012.50 1012.32 1012.10 1011.84 1011.53 1011.19 1010.82 1010.44 1010.08 1009.73 1009.43 1009.18 1008.97 1008.80 1008.67 1008.57 1008.46 1008.35 1008.21 1008.04
1014.38 1014.35 1014.41 1014.53 1014.73 1014.97 1015.22 1015.46 1015.64 1015.75 1015.76 1015.67 1015.48 1015.22 1014.90 1014.55 1014.20 1013.87 1013.58 1013.34 1013.16 1013.02 1012.90 1012.79 1012.66 1012.51 1012.31 1012.07 1011.77 1011.43 1011.07 1010.69 1010.32 1009.97 1009.66 1009.38 1009.14 1008.94 1008.77 1008.60 1008.44 1008.27 1008.08 1007.85
1014.81 1014.72 1014.70 1014.73 1014.83 1014.96 1015.10 1015.23 1015.32 1015.34 1015.30 1015.19 1015.00 1014.76 1014.48 1014.20 1013.93 1013.70 1013.51 1013.37 1013.28 1013.22 1013.18 1013.13 1013.07 1012.96 1012.80 1012.59 1012.32 1012.00 1011.65 1011.28 1010.92 1010.56 1010.23 1009.92 1009.65 1009.40 1009.17 1008.95 1008.72 1008.48 1008.21 1007.91
1015.19 1015.05 1014.96 1014.92 1014.92 1014.95 1015.00 1015.03 1015.04 1015.01 1014.92 1014.79 1014.61 1014.41 1014.19 1013.99 1013.81 1013.68 1013.59 1013.56 1013.57 1013.60 1013.65 1013.67 1013.67 1013.63 1013.52 1013.35 1013.11 1012.83 1012.50 1012.15 1011.78 1011.42 1011.07 1010.74 1010.42 1010.13 1009.84 1009.55 1009.26 1008.94 1008.59 1008.21
1015.54 1015.37 1015.23 1015.13 1015.07 1015.02 1014.99 1014.95 1014.90 1014.82 1014.71 1014.57 1014.41 1014.25 1014.09 1013.97 1013.88 1013.84 1013.85 1013.92 1014.02 1014.14 1014.26 1014.36 1014.42 1014.43 1014.37 1014.24 1014.05 1013.79 1013.49 1013.15 1012.79 1012.42 1012.06 1011.70 1011.35 1011.02 1010.67 1010.32 1009.96 1009.57 1009.14 1008.68
1015.83 1015.65 1015.49 1015.36 1015.26 1015.16 1015.08 1015.00 1014.91 1014.81 1014.69 1014.56 1014.43 1014.31 1014.22 1014.16 1014.15 1014.18 1014.28 1014.41 1014.58 1014.77 1014.94 1015.10 1015.21 1015.26 1015.24 1015.15 1014.98 1014.76 1014.47 1014.15 1013.80 1013.43 1013.06 1012.68 1012.31 1011.93 1011.54 1011.15 1010.72 1010.27 1009.78 1009.26
1016.02 1015.85 1015.70 1015.56 1015.45 1015.34 1015.24 1015.15 1015.05 1014.95 1014.84 1014.74 1014.64 1014.57 1014.53 1014.53 1014.57 1014.67 1014.81 1014.99 1015.20 1015.42 1015.62 1015.80 1015.94 1016.01 1016.02 1015.95 1015.80 1015.60 1015.34 1015.03 1014.69 1014.33 1013.95 1013.56 1013.17 1012.77 1012.36 1011.92 1011.46 1010.97 1010.44 1009.88
1016.07 1015.93 1015.80 1015.68 1015.58 1015.49 1015.41 1015.33 1015.25 1015.17 1015.10 1015.04 1014.99 1014.97 1014.97 1015.01 1015.10 1015.23 1015.39 1015.59 1015.81 1016.03 1016.24 1016.42 1016.55 1016.62 1016.63 1016.57 1016.44 1016.25 1016.00 1015.71 1015.39 1015.03 1014.66 1014.28 1013.88 1013.47 1013.04 1012.59 1012.11 1011.60 1011.06 1010.48
Thickness
5763 5766 5765 5763 5763 5761 5756 5757 5753 5759 5763 5768 5769 5767 5767 5769 5771 5771 5770 5770 5769 5767 5764 5761 5758 5755 5753 5750 5748 5745 5740 5735 5732 5729 5726 5722 5718 5714 5710 5706 5703 5699 5696 5693
5750 5759 5759 5756 5761 5761 5758 5758 5758 5759 5759 5769 5766 5764 5761 5761 5762 5763 5765 5767 5767 5765 5763 5759 5756 5754 5751 5748 5745 5741 5736 5733 5730 5727 5722 5719 5715 5711 5707 5704 5700 5697 5693 5690
5740 5752 5747 5743 5758 5758 5757 5761 5758 5752 5758 5760 5754 5750 5749 5750 5753 5755 5758 5760 5761 5761 5760 5757 5756 5753 5749 5746 5743 5737 5733 5730 5727 5723 5719 5716 5713 5708 5703 5700 5696 5692 5689 5686
5736 5732 5717 5751 5765 5762 5756 5757 5759 5755 5753 5751 5747 5745 5745 5745 5745 5747 5750 5753 5754 5756 5756 5755 5753 5751 5747 5744 5739 5734 5729 5726 5724 5720 5716 5713 5708 5704 5699 5696 5692 5689 5686 5683
5729 5725 5731 5745 5752 5752 5745 5744 5751 5747 5744 5744 5745 5743 5739 5737 5739 5740 5742 5745 5747 5750 5751 5749 5747 5745 5742 5737 5733 5729 5725 5721 5719 5716 5712 5707 5703 5698 5695 5691 5688 5685 5682 5679
5722 5713 5713 5736 5748 5751 5743 5731 5741 5740 5736 5737 5737 5732 5725 5727 5729 5731 5733 5736 5738 5740 5740 5738 5737 5736 5732 5728 5723 5720 5718 5715 5713 5709 5705 5701 5697 5693 5690 5685 5682 5680 5678 5675
5715 5711 5725 5738 5743 5740 5721 5722 5733 5734 5731 5730 5725 5721 5716 5718 5717 5719 5720 5722 5724 5724 5723 5722 5722 5722 5718 5715 5711 5710 5709 5706 5703 5699 5696 5693 5690 5686 5683 5679 5676 5673 5671 5669
5711 5703 5711 5731 5732 5726 5722 5726 5727 5725 5724 5719 5714 5710 5707 5705 5703 5705 5706 5707 5707 5707 5706 5707 5706 5706 5704 5700 5699 5698 5697 5694 5691 5689 5686 5684 5680 5676 5674 5671 5667 5665 5662 5660
5716 5713 5717 5726 5724 5723 5724 5720 5718 5717 5714 5710 5704 5699 5696 5693 5692 5692 5692 5693 5693 5693 5691 5690 5689 5689 5687 5685 5685 5685 5684 5682 5680 5678 5675 5673 5670 5667 5664 5661 5660 5658 5656 5654
5708 5714 5714 5715 5716 5716 5717 5713 5712 5709 5704 5700 5693 5689 5684 5682 5680 5679 5679 5679 5679 5678 5676 5673 5674 5674 5672 5672 5672 5672 5670 5668 5667 5666 5663 5660 5658 5658 5655 5653 5650 5648 5646 5644
5699 5703 5705 5704 5705 5706 5705 5703 5699 5695 5692 5687 5682 5677 5673 5669 5668 5667 5666 5666 5666 5665 5663 5661 5661 5661 5660 5660 5659 5658 5657 5656 5655 5655 5653 5649 5647 5645 5643 5640 5637 5632 5631 5629
5690 5692 5694 5691 5695 5697 5693 5689 5685 5680 5676 5673 5670 5665 5662 5658 5656 5655 5654 5653 5653 5653 5651 5650 5649 5648 5647 5647 5646 5645 5644 5644 5644 5643 5640 5639 5636 5634 5629 5625 5620 5616 5612 5608
5684 5687 5687 5685 5686 5685 5681 5677 5673 5668 5663 5659 5656 5653 5650 5647 5645 5644 5643 5642 5641 5640 5639 5637 5636 5634 5634 5633 5633 5631 5630 5629 5630 5629 5628 5626 5624 5621 5619 5615 5609 5605 5601 5596
5676 5676 5672 5672 5671 5670 5667 5663 5659 5654 5650 5647 5643 5641 5638 5636 5635 5633 5631 5631 5630 5629 5628 5626 5625 5623 5622 5622 5621 5620 5620 5617 5616 5615 5614 5613 5610 5608 5606 5603 5601 5599 5594 5586
5666 5667 5663 5659 5657 5654 5651 5648 5642 5637 5634 5632 5630 5628 5625 5624 5622 5621 5621 5620 5619 5619 5617 5616 5614 5612 5611 5611 5609 5608 5608 5607 5604 5602 5602 5601 5598 5596 5593 5589 5586 5584 5582 5578
5653 5653 5650 5645 5642 5639 5637 5633 5627 5623 5620 5618 5616 5614 5613 5612 5611 5611 5610 5610 5608 5607 5605 5603 5602 5600 5599 5598 5596 5596 5595 5590 5588 5589 5589 5587 5584 5581 5577 5574 5570 5567 5565 5562
5640 5636 5633 5630 5627 5625 5622 5618 5614 5610 5607 5605 5603 5603 5602 5602 5601 5600 5600 5600 5598 5596 5594 5592 5590 5589 5587 5585 5584 5584 5584 5582 5576 5576 5575 5572 5568 5564 5560 5557 5554 5551 5548 5544
5631 5628 5625 5620 5615 5610 5607 5605 5602 5599 5596 5594 5594 5593 5592 5591 5590 5590 5589 5589 5587 5585 5583 5581 5578 5576 5575 5572 5569 5569 5569 5569 5566 5563 5559 5555 5550 5547 5544 5541 5537 5534 5531 5529
5615 5612 5609 5605 5603 5600 5596 5594 5591 5590 5589 5587 5585 5583 5582 5581 5580 5579 5578 5577 5576 5574 5571 5569 5561 5562 5562 5559 5553 5554 5555 5553 5551 5547 5543 5537 5534 5533 5529 5525 5521 5518 5515 5512
5598 5597 5595 5592 5591 5588 5586 5584 5583 5581 5580 5579 5577 5575 5574 5573 5571 5569 5568 5566 5565 5562 5557 5553 5551 5550 5547 5544 5537 5542 5541 5539 5535 5531 5527 5523 5519 5515 5512 5509 5506 5503 5499 5497
5585 5584 5583 5581 5579 5578 5577 5575 5573 5571 5571 5569 5567 5565 5563 5561 5560 5558 5556 5556 5551 5546 5542 5538 5537 5535 5533 5527 5523 5528 5526 5523 5519 5515 5511 5507 5503 5499 5496 5493 5490 5487 5484 5482
5574 5573 5572 5571 5570 5568 5567 5565 5564 5562 5560 5558 5556 5554 5552 5550 5550 5547 5544 5541 5538 5529 5529 5529 5524 5515 5512 5508 5514 5513 5510 5506 5503 5499 5495 5491 5487 5484 5481 5478 5475 5473 5471 5469
5563 5562 5561 5560 5559 5557 5556 5554 5552 5550 5547 5545 5543 5541 5540 5538 5537 5535 5533 5528 5525 5515 5514 5512 5502 5497 5493 5499 5500 5498 5495 5491 5487 5484 5481 5477 5473 5470 5467 5465 5463 5461 5460 5459
5551 5549 5548 5548 5547 5546 5543 5543 5541 5538 5536 5534 5533 5530 5528 5528 5526 5524 5519 5509 5504 5500 5500 5493 5487 5484 5482 5488 5486 5483 5480 5476 5473 5471 5467 5464 5462 5460 5457 5455 5453 5452 5451 5451
5539 5538 5537 5536 5535 5535 5532 5531 5529 5527 5527 5525 5523 5520 5519 5516 5512 5509 5504 5499 5491 5488 5489 5483 5477 5474 5475 5475 5472 5469 5466 5462 5459 5456 5455 5453 5451 5450 5448 5446 5445 5444 5445 5444
5527 5527 5526 5523 5523 5521 5522 5521 5519 5518 5517 5514 5511 5509 5506 5502 5499 5495 5491 5487 5483 5477 5477 5474 5471 5467 5465 5462 5458 5456 5453 5450 5449 5446 5443 5441 5440 5439 5438 5437 5437 5438 5438 5438
5518 5517 5515 5515 5515 5513 5511 5510 5507 5505 5504 5501 5497 5494 5492 5489 5486 5483 5479 5475 5472 5469 5466 5463 5459 5455 5452 5449 5447 5444 5441 5438 5436 5434 5432 5431 5430 5430 5430 5430 5431 5432 5432 5433